Location: El Portezuelo
(28.4984°N, 16.3589°W)
Time: 10:58:20
(UTC+00:00)

STARLINK-1023 - Pass Details

Date: 20 January 2020
Orbit: 357 x 365 km, 53.0° (Epoch: 19 February)

Event Time Altitude Azimuth Distance (km) Brightness Sun altitude
Exits shadow 06:46:07 10° 211° (SSW) 1,342 5.4 -15.8°
Reaches altitude 10° 06:46:10 10° 211° (SSW) 1,325 5.4 -15.8°
Maximum altitude 06:49:05 63° 130° (SE) 401 3.1 -15.2°
Drops below altitude 10° 06:52:02 10° 48° (NE) 1,332 6.0 -14.6°
Sets 06:54:04 0° 45° (NE) 2,179 7.1 -14.2°
